Weather History for Eau Claire, WI

Change the Weather History Date:

Tuesday, November 20, 2012

  Actual Average Record
Temperature  
Mean Temperature 39 °F 30 °F  
Max Temperature 52 °F 39 °F 66 °F (1930)
Min Temperature 25 °F 22 °F -3 °F (1921)
Degree Days  
Heating Degree Days 26 35  
Month to date heating degree days 506 585  
Since 1 July heating degree days 1359 1369  
Cooling Degree Days 0 0  
Month to date cooling degree days 0 0  
Year to date cooling degree days 830 579  
Moisture  
Dew Point 31 °F    
Average Humidity 82    
Maximum Humidity 100    
Minimum Humidity 63    
Precipitation  
Precipitation 0.00 in 0.06 in 1.15 in (1975)
Month to date precipitation 0.70 1.27  
Year to date precipitation 22.41 29.41  
Snow  
Snow 0.00 in 0.30 in 3.80 in (1956)
Month to date snowfall 0.9 3.2  
Since 1 July snowfall 0.9 3.6  
Since 1 September snowfall 0.9 3.6  
Snow Depth 0.00 in    
Sea Level Pressure  
Sea Level Pressure 30.10 in    
Wind  
Wind Speed 1 mph (SW)    
Max Wind Speed 8 mph    
Max Gust Speed 10 mph    
Visibility 2 miles    
Events Fog    
T = Trace of Precipitation, MM = Missing Value Source: NWS Daily Summary

Daily Weather History Graph

Daily Weather History Graph

Search for Another Location

Airport:

Trip Planner

Search our weather history database for the weather conditions in past years. The results will help you decide how hot, cold, wet, or windy it might be!

Date:

Astronomy

Nov. 20, 2012 Rise Set
Actual Time 7:10 AM CST 4:32 PM CST
Civil Twilight 6:38 AM CST 5:04 PM CST
Nautical Twilight 6:02 AM CST 5:40 PM CST
Astronomical Twilight 5:27 AM CST 6:15 PM CST
Moon 12:36 PM CST (11/20) No Moon Set
Length of Visible Light 10h 26m
Length of Day
9h 21m
First Quarter, 51% of the Moon is Illuminated
Nov 20
First Quarter
Nov 28
Full
Dec 6
Last Quarter
Dec 13
New
Dec 19
First Quarter

Hourly Weather History & Observations

Time (CST) Temp. Windchill Dew Point Humidity Pressure Visibility Wind Dir Wind Speed Gust Speed Precip Events Conditions
12:56 AM 36.0 °F - 35.1 °F 97% 30.07 in 4.0 mi Calm Calm - N/A   Clear
1:40 AM 35.6 °F - 33.8 °F 93% 30.05 in 0.5 mi Calm Calm - N/A Fog Fog
1:47 AM 33.8 °F - 33.8 °F 100% 30.05 in 0.2 mi Calm Calm - N/A Fog Fog
1:56 AM 34.0 °F - 34.0 °F 100% 30.08 in 0.5 mi Calm Calm - N/A Fog Fog
2:13 AM 33.8 °F - 32.0 °F 93% 30.06 in 0.2 mi Calm Calm - N/A Fog Fog
2:20 AM 33.8 °F - 33.8 °F 100% 30.06 in 0.8 mi Calm Calm - N/A   Mist
2:26 AM 33.8 °F - 32.0 °F 93% 30.06 in 1.5 mi Calm Calm - N/A   Partly Cloudy
2:35 AM 32.0 °F - 30.2 °F 93% 30.07 in 2.5 mi Calm Calm - N/A   Partly Cloudy
2:51 AM 32.0 °F - 30.2 °F 93% 30.07 in 1.0 mi Calm Calm - N/A   Clear
2:56 AM 32.0 °F - 30.9 °F 96% 30.09 in 1.2 mi Calm Calm - N/A   Clear
3:04 AM 32.0 °F - 30.2 °F 93% 30.06 in 0.8 mi Calm Calm - N/A   Mist
3:23 AM 30.2 °F - 30.2 °F 100% 30.06 in 2.0 mi Calm Calm - N/A   Scattered Clouds
3:30 AM 30.2 °F - 30.2 °F 100% 30.05 in 4.0 mi Calm Calm - N/A   Scattered Clouds
3:56 AM 32.0 °F - 30.0 °F 92% 30.09 in 3.0 mi Calm Calm - N/A   Clear
4:03 AM 32.0 °F - 30.2 °F 93% 30.07 in 1.8 mi Calm Calm - N/A   Clear
4:14 AM 30.2 °F - 28.4 °F 93% 30.07 in 0.8 mi Calm Calm - N/A   Mist
4:56 AM 30.0 °F - 28.9 °F 96% 30.12 in 0.5 mi Calm Calm - N/A Fog Light Freezing Fog
5:05 AM 30.2 °F - 28.4 °F 93% 30.09 in 0.2 mi Calm Calm - N/A Fog Light Freezing Fog
5:18 AM 28.4 °F - 28.4 °F 100% 30.10 in 0.5 mi Calm Calm - N/A Fog Light Freezing Fog
5:32 AM 30.2 °F - 28.4 °F 93% 30.09 in 2.0 mi Calm Calm - N/A   Mostly Cloudy
5:41 AM 30.2 °F - 28.4 °F 93% 30.09 in 3.0 mi Calm Calm - N/A   Mostly Cloudy
5:46 AM 30.2 °F - 28.4 °F 93% 30.09 in 2.5 mi Calm Calm - N/A   Scattered Clouds
5:56 AM 30.0 °F - 28.9 °F 96% 30.12 in 4.0 mi Calm Calm - N/A   Partly Cloudy
6:14 AM 28.4 °F - 26.6 °F 93% 30.09 in 4.0 mi Calm Calm - N/A   Mostly Cloudy
6:21 AM 30.2 °F - 26.6 °F 86% 30.09 in 1.0 mi Calm Calm - N/A   Mist
6:28 AM 30.2 °F 26.7 °F 28.4 °F 93% 30.09 in 0.8 mi SSW 3.5 mph - N/A   Mist
6:41 AM 28.4 °F - 28.4 °F 100% 30.09 in 0.2 mi Calm Calm - N/A Fog Light Freezing Fog
6:56 AM 30.0 °F - 28.9 °F 96% 30.12 in 0.2 mi Calm Calm - N/A Fog Light Freezing Fog
7:25 AM 30.2 °F 26.7 °F 30.2 °F 100% 30.09 in 0.2 mi SSW 3.5 mph - N/A Fog Light Freezing Fog
7:56 AM 30.9 °F - 30.0 °F 96% 30.12 in 0.2 mi Calm Calm - N/A Fog Light Freezing Fog
8:56 AM 32.0 °F - 32.0 °F 100% 30.15 in 0.2 mi Calm Calm - N/A Fog Fog
9:56 AM 35.1 °F - 35.1 °F 100% 30.17 in 0.2 mi Calm Calm - N/A Fog Fog
10:14 AM 35.6 °F - 35.6 °F 100% 30.14 in 0.2 mi Calm Calm - N/A Fog Fog
10:46 AM 37.4 °F - 35.6 °F 93% 30.13 in 0.5 mi Calm Calm - N/A Fog Fog
10:53 AM 37.4 °F - 37.4 °F 100% 30.13 in 1.5 mi Calm Calm - N/A   Mostly Cloudy
10:56 AM 39.0 °F - 37.0 °F 93% 30.16 in 3.0 mi Calm Calm - N/A   Mostly Cloudy
11:09 AM 39.2 °F 37.0 °F 37.4 °F 93% 30.13 in 5.0 mi SW 3.5 mph - N/A   Scattered Clouds
11:56 AM 45.0 °F - 39.0 °F 80% 30.14 in 7.0 mi Calm Calm - N/A   Clear
12:56 PM 48.9 °F - 39.0 °F 69% 30.14 in 8.0 mi Calm Calm - N/A   Clear
2:56 PM 52.0 °F - 39.0 °F 61% 30.13 in 10.0 mi WSW 8.1 mph - N/A   Clear
3:56 PM 48.9 °F - 37.9 °F 66% 30.13 in 9.0 mi SSW 4.6 mph - N/A   Clear
4:56 PM 44.1 °F - 37.0 °F 76% 30.14 in 9.0 mi Calm Calm - N/A   Clear
5:56 PM 39.9 °F 37.8 °F 35.1 °F 83% 30.14 in 8.0 mi SSW 3.5 mph - N/A   Clear
6:56 PM 36.0 °F - 34.0 °F 93% 30.15 in 4.0 mi Calm Calm - N/A   Clear
7:56 PM 36.0 °F - 34.0 °F 93% 30.13 in 1.8 mi Calm Calm - N/A   Clear
8:06 PM 32.0 °F - 32.0 °F 100% 30.10 in 0.8 mi Calm Calm - N/A   Mist
8:13 PM 33.8 °F - 32.0 °F 93% 30.10 in 7.0 mi Calm Calm - N/A   Partly Cloudy
8:56 PM 28.9 °F - 28.9 °F 100% 30.14 in 7.0 mi Calm Calm - N/A   Scattered Clouds
9:03 PM 30.2 °F - 30.2 °F 100% 30.10 in 0.2 mi Calm Calm - N/A Fog Light Freezing Fog
9:18 PM 32.0 °F - 30.2 °F 93% 30.11 in 1.0 mi Calm Calm - N/A   Mist
9:25 PM 32.0 °F - 32.0 °F 100% 30.11 in 1.2 mi Calm Calm - N/A   Clear
9:36 PM 30.2 °F - 30.2 °F 100% 30.11 in 0.5 mi Calm Calm - N/A Fog Light Freezing Fog
9:40 PM 30.2 °F - 30.2 °F 100% 30.11 in 0.2 mi Calm Calm - N/A Fog Light Freezing Fog
9:56 PM 28.9 °F - 28.0 °F 96% 30.14 in 0.2 mi Calm Calm - N/A Fog Light Freezing Fog
10:19 PM 28.4 °F - 28.4 °F 100% 30.10 in 1.0 mi Calm Calm - N/A   Mist
10:21 PM 28.4 °F - 28.4 °F 100% 30.10 in 2.0 mi Calm Calm - N/A   Partly Cloudy
10:29 PM 28.4 °F - 28.4 °F 100% 30.10 in 0.8 mi Calm Calm - N/A   Mist
10:33 PM 28.4 °F - 28.4 °F 100% 30.09 in 0.2 mi Calm Calm - N/A Fog Light Freezing Fog
10:56 PM 28.0 °F - 27.0 °F 96% 30.13 in 0.2 mi Calm Calm - N/A Fog Light Freezing Fog
11:56 PM 27.0 °F - 25.0 °F 92% 30.12 in 0.2 mi Calm Calm - N/A Fog Light Freezing Fog